Погода Тангуй

Погода Тангуй : погода сейчас, прогноз погоды и архив. Всё, что Вы хотите узнать о погоде Тангуй!

Хотите узнать прогноз погоды Тангуй? Тогда Вам сюда: Погода Тангуй

Поиск расширенной информации на нашем сайте:

Другие новости

Новости СМИ2

Главная страница сайта

Новости сайта

03.07.2017

Напоминаем, что на нашем специализированном сайте Метеоцентр.Азия вы можете получить высокодетализированные автоматические прогнозы погоды по пунктам России, СНГ и мира в авиационном формате (включающие направление и скорость ветра, видимость, явления погоды, количество и форму облачности, нижнюю и верхнюю границу облачности).

Рекомендуем: Кровотечение после пиявок все о пиявках как долго может продолжаться Кровотечение.

Погода Тангуй - сегодня

Время (UTC), дата Ветер
(°,м/с) 
Видим.   Явления Облачность Т
(°С)
Тd
(°С)
f(%) Тe
(°С)
Pmin
(гПа)
dP
(гПа)
Po
(мм)
O2
(г/м3)
Тmin Tmax R s Состояние
почвы
03 18.09.17 160 (Ю) 20000 м  слаб. ливневой дождь  10/5 600 м кучево-дожд., средняя, верхняя 
[Cb cap|Ac trans|Ci fib]
+5.8 +1.9 76 +6  1017.7  -2.1  725  286           
06 18.09.17 170 (Ю) 20000 м  {ливн. осадки}  5/0 средняя, верхняя 
[Ac trans|Ci fib]
+11.2 +2.3 54 +11  1013.6  -3  723  279           
09 18.09.17 160 (Ю) 20000 м    10/0 средняя, верхняя 
[Ac trans|Ci fib]
+13.7 +3.3 49 +14  1010.4  -2.6  721  276           
12 18.09.17 050 (СВ) 20000 м    9/3 600 м кучево-дожд., средняя 
[Cb cap|Ac trans]
+10.8 +4.9 67 +12  1010.4  -0.4  721  278    +13.9  0.0     
15 18.09.17 тихо ()   н/о  {ливн. осадки}  10/0 средняя 
[Ac und]
+10.3 +5 70 +10  1010  -0.5  720  279           
18 18.09.17 230 (ЮЗ) н/о  слаб. ливневой дождь  10/8 600 м кучево-дожд., средняя 
[Cb cap|Ac und]
+9.1 +6.3 83 +10  1010.4  0.2  720  280           
21 18.09.17 240 (ЮЗ) н/о  {ливн. осадки}  10/10 300 м 
[St]
+9.5 +8.7 95 +11  1009.7  -0.6  720  279           
00 19.09.17 тихо ()   20000 м  {ливн. осадки}  10/3 600 м кучево-дожд., средняя 
[Cb cap|Ac und]
+10.3 +9.6 95 +12  1009.5  720  278  +8.7      влажная 
03 19.09.17 150 (ЮВ) 20000 м    10/8 600 м кучево-дожд., средняя 
[Cb cap|Ac und]
+12.1 +9.9 86 +15  1008  -1.1  719  276           
06 19.09.17 060 (СВ) 20000 м  слаб. ливневой дождь  10/6 600 м кучево-дожд., средняя, верхняя 
[Cb cap|Ac trans|Cs]
+14.4 +10.9 79 +18  1004.2  -3.2  717  272           
09 19.09.17 080 (В) 20000 м  слаб. ливневой дождь  10/10 600 м кучево-дожд. 
[Cb cap]
+11.7 +10.5 92 +16  1006.3  1.5  718  275           
12 19.09.17 тихо ()   20000 м  {ливн. осадки}  10/8 600 м кучево-дожд., верхняя 
[Cb cap|Ci fib]
+11 +10 94 +13  1007.3  0.8  718  276    +15.3  0.7     
15 19.09.17 010 (С) н/о    10/10 1000 м 
[Sc]
+10.4 +9.2 92 +12  1008.5  719  277           
18 19.09.17 тихо ()   н/о    8/8 1000 м 
[Sc]
+8.2 +7.4 95 +8  1009.7  0.7  720  280           
21 19.09.17 тихо ()   н/о    9/3 1000 м средняя 
[Sc|Ac trans]
+7.9 +7.1 95 +8  1009.1  -0.6  719  280           
00 20.09.17 030 (СВ) 20000 м    9/3 1000 м средняя 
[Sc|Ac trans]
+8.1 +6.8 91 +9  1009.8  0.7  720  280  +7.9        влажная 
03 20.09.17 010 (С) 20000 м    10/4 1000 м средняя 
[Sc|Ac und]
+8.9 +6.9 87 +9  1010.5  0.8  720  280           
06 20.09.17 010 (С) 20000 м    9/6 1000 м средняя 
[Sc|Ac und]
+10.4 +6.4 76 +12  1010.6  0.3  721  279           
09 20.09.17 010 (С) 20000 м  слаб. ливневой дождь  9/5 600 м кучево-дожд., средняя 
[Cb cap|Ac trans]
+10 +6.6 79 +10  1011.3  0.6  721  279           
12 20.09.17 030 (СВ) 20000 м  {ливн. осадки}  9/9 600 м кучево-дожд. 
[Cb cap]
+9 +5.4 78 +9  1013  1.4  722  281    +10.7  0.0     
15 20.09.17 030 (СВ) н/о    8/8 600 м кучево-дожд. 
[Cb cap]
+4.8 +2.7 86 +6  1015.5  1.6  723  286           
18 20.09.17 350 (С) н/о    10/10 1000 м 
[Sc]
+4.6 +2.6 87 +5  1015.4  -0.1  723  286           
21 20.09.17 010 (С) н/о    10/10 1000 м 
[Sc]
+4.1 +1.8 85 +5  1015.8  0.2  723  287           
00 21.09.17 330 (СЗ) 20000 м  слаб. ливневой дождь  10/10 600 м кучево-дожд. 
[Cb cap]
+3.3 +2.1 92 +4  1017  1.1  724  288  +3.3    0.4     
03 21.09.17 350 (С) 20000 м  {ливн. осадки}  10/10 300 м 
[St]
+5.3 +2.5 82 +5  1016.7  724  286           
Время (UTC), дата Ветер
(°,м/с) 
Видим.   Явления Облачность Т
(°С)
Тd
(°С)
f(%) Тe
(°С)
Pmin
(гПа)
dP
(гПа)
Po
(мм)
O2
(г/м3)
Тmin Tmax R s Состояние
почвы

Для получения пояснительной информации подведите курсор к названию столбца.

ПОГОДА Тангуй - архив

Всё, что Вы хотите узнать о погоде Тангуй - удобно и подробно!

Выберите нужную дату (начиная с 1 января 2015* года) и нажмите кнопку "Найти".
Будут отображены архивные сводки погоды по пункту Тангуй, начиная с указанной даты.


Отображать данные в формате CSV (для использования в таблицах Excel)


Внимание! Наш архив погоды предназначен исключительно для личного некоммерческого использования в познавательных целях. Если Вам необходимы официальные справки о состоянии погоды (для производственных, юридических, коммерческих и т.п. целей), обращайтесь в органы Росгидромета.

*Примечание: данная дата относится к архиву по метеостанциям СССР (Россия, СНГ, Балтия).
Архив по метеостанциям Зарубежной Европы и Азии (кроме Китая) хранится 10 дней, по другим регионам земного шара (Китай, Африка, Америка, Австралия, Океания) - 1 день.

Тангуй - район местоположения метеостанции


Название, широта, долгота, высота метеостанции:
Тангуй 55.4°ш. 101°д. 423 м над ур. моря [Российская Федерация]

Дополнительная информация

В oтличие oт бoльшинства пoгoдных сайтoв мы публикуем пoдрoбную метеoинфoрмацию в детальнoм прoфессиoнальнoм фoрмате.

Характеристики температуры и влажнoсти вoздуха измеряются на высoте 2 м в тени вдали oт зданий и деревьев.
Скoрoсть ветра измеряется на высoте 10 м (на урoвне рoста челoвека скoрoсть ветра ниже в 1.5-2 раза). Если метеoстанция нахoдится в гoрoде или в лесу, тo скoрoсть ветра занижена на 2-4 м/с пo сравнению с oткрытым местoм. Скoрoсть ветра над акватoриями крупных рек и oзёр, а также на вершинах хoлмoв на 2-5 м/с выше, чем в oбычных услoвиях.
Атмoсфернoе давление в разных тoчках местнoсти мoжет значительнo oтличаться oт давления на метеoстанции, в зависимoсти oт услoвий рельефа (при пoдъёме на 10 м давление пoнижается примернo на 1 мм рт.ст.).